Warroad, MN

12:43 AM CDT on June 25, 2017 (GMT -0500)
Warroad International-Carlson

Weather History for KRRT - December, 2013

Change the Weather History Date:

Sunday, December 8, 2013

  Actual Average Record
Temperature  
Mean Temperature -10 °F -  
Max Temperature 1 °F 20 °F 43 °F (1952)
Min Temperature -22 °F 3 °F -29 °F (1976)
Degree Days  
Heating Degree Days 76    
Moisture  
Dew Point -15 °F    
Average Humidity 74    
Maximum Humidity 85    
Minimum Humidity 65    
Precipitation  
Precipitation 0.01 in - - ()
Sea Level Pressure  
Sea Level Pressure 30.14 in    
Wind  
Wind Speed 6 mph (SSW)    
Max Wind Speed 12 mph    
Max Gust Speed 16 mph    
Visibility 7 miles    
Events Snow    
Averages and records for this station are not official NWS values.
T = Trace of Precipitation, MM = Missing Value Source: NWS Daily Summary

Daily Weather History Graph

Daily Weather History Graph

Search for Another Location

Airport or City:

Trip Planner

Search our weather history database for the weather conditions in past years. The results will help you decide how hot, cold, wet, or windy it might be!

Date:

Astronomy

Dec. 08, 2013 Rise Set
Actual Time 8:02 AM CST 4:24 PM CST
Civil Twilight 7:25 AM CST 5:01 PM CST
Nautical Twilight 6:45 AM CST 5:41 PM CST
Astronomical Twilight 6:06 AM CST 6:19 PM CST
Moon 11:58 AM CST (12/8) 11:42 PM CST (12/8)
Length of Visible Light 9h 35m
Length of Day
8h 22m
Waxing Crescent, 40% of the Moon is Illuminated
Dec 8
Waxing Crescent
Dec 9
First Quarter
Dec 17
Full
Dec 25
Last Quarter
Jan 1
New

Hourly Weather History & Observations

Time (CST) Temp. Windchill Dew Point Humidity Pressure Visibility Wind Dir Wind Speed Gust Speed Precip Events Conditions
12:14 AM -14.8 °F -34.6 °F -22.0 °F 70% 30.34 in 10.0 mi SSW 10.4 mph 16.1 mph N/A   Clear
12:34 AM -16.6 °F -35.7 °F -23.8 °F 70% 30.33 in 10.0 mi SSW 9.2 mph - N/A   Clear
12:54 AM -16.6 °F -35.7 °F -22.0 °F 76% 30.33 in 10.0 mi SW 9.2 mph - N/A   Clear
1:14 AM -16.6 °F -34.4 °F -23.8 °F 70% 30.32 in 10.0 mi SW 8.1 mph - N/A   Clear
1:34 AM -16.6 °F -34.4 °F -23.8 °F 70% 30.33 in 10.0 mi SSW 8.1 mph - N/A   Clear
1:54 AM -18.4 °F -37.9 °F -23.8 °F 76% 30.32 in 10.0 mi SSW 9.2 mph - N/A   Clear
2:14 AM -16.6 °F -37.9 °F -23.8 °F 70% 30.32 in 10.0 mi SSW 11.5 mph - N/A   Clear
2:34 AM -16.6 °F -35.7 °F -23.8 °F 70% 30.32 in 10.0 mi SW 9.2 mph - N/A   Clear
2:54 AM -16.6 °F -34.4 °F -23.8 °F 70% 30.32 in 10.0 mi SSW 8.1 mph - N/A   Clear
3:14 AM -16.6 °F -32.9 °F -23.8 °F 70% 30.31 in 10.0 mi SSW 6.9 mph - N/A   Clear
3:34 AM -16.6 °F -35.7 °F -23.8 °F 70% 30.30 in 10.0 mi SSW 9.2 mph - N/A   Clear
3:54 AM -18.4 °F -33.4 °F -23.8 °F 76% 30.30 in 10.0 mi SSW 5.8 mph - N/A   Clear
4:14 AM -18.4 °F -31.4 °F -23.8 °F 76% 30.29 in 10.0 mi South 4.6 mph - N/A   Clear
4:34 AM -18.4 °F -36.6 °F -25.6 °F 70% 30.28 in 10.0 mi SSW 8.1 mph - N/A   Clear
4:54 AM -18.4 °F -36.6 °F -25.6 °F 70% 30.26 in 10.0 mi SSW 8.1 mph - N/A   Clear
5:14 AM -18.4 °F -33.4 °F -25.6 °F 70% 30.26 in 10.0 mi South 5.8 mph - N/A   Clear
5:34 AM -18.4 °F -35.1 °F -25.6 °F 70% 30.26 in 10.0 mi SSW 6.9 mph - N/A   Clear
5:54 AM -18.4 °F -31.4 °F -25.6 °F 70% 30.25 in 10.0 mi SSW 4.6 mph - N/A   Clear
6:14 AM -20.2 °F - -27.4 °F 69% 30.25 in 10.0 mi Calm Calm - N/A   Clear
6:34 AM -20.2 °F -35.5 °F -27.4 °F 69% 30.25 in 10.0 mi South 5.8 mph - N/A   Clear
6:54 AM -22.0 °F - -27.4 °F 76% 30.24 in 10.0 mi Calm Calm - N/A   Clear
7:14 AM -22.0 °F - -27.4 °F 76% 30.23 in 10.0 mi Calm Calm - N/A   Clear
7:34 AM -20.2 °F -33.5 °F -27.4 °F 69% 30.22 in 10.0 mi South 4.6 mph - N/A   Clear
7:54 AM -20.2 °F -30.9 °F -27.4 °F 69% 30.22 in 10.0 mi SSW 3.5 mph - N/A   Clear
8:14 AM -20.2 °F -30.9 °F -27.4 °F 69% 30.21 in 10.0 mi South 3.5 mph - N/A   Scattered Clouds
8:34 AM -18.4 °F -28.9 °F -25.6 °F 70% 30.21 in 10.0 mi South 3.5 mph - N/A   Overcast
8:54 AM -18.4 °F -33.4 °F -23.8 °F 76% 30.21 in 10.0 mi South 5.8 mph - N/A   Mostly Cloudy
9:14 AM -16.6 °F -31.3 °F -23.8 °F 70% 30.20 in 10.0 mi South 5.8 mph - N/A   Scattered Clouds
9:33 AM -14.8 °F -27.2 °F -22.0 °F 70% 30.20 in 10.0 mi South 4.6 mph - N/A   Clear
9:54 AM -14.8 °F -29.1 °F -20.2 °F 77% 30.20 in 10.0 mi South 5.8 mph - N/A   Clear
10:14 AM -11.2 °F -20.6 °F -18.4 °F 70% 30.20 in 10.0 mi South 3.5 mph - N/A   Clear
10:34 AM -9.4 °F -18.6 °F -16.6 °F 71% 30.19 in 10.0 mi South 3.5 mph - N/A   Clear
10:54 AM -9.4 °F - -16.6 °F 71% 30.19 in 10.0 mi Calm Calm - N/A   Clear
11:14 AM -9.4 °F -18.6 °F -16.6 °F 71% 30.18 in 10.0 mi South 3.5 mph - N/A   Clear
11:34 AM -9.4 °F -18.6 °F -16.6 °F 71% 30.17 in 10.0 mi South 3.5 mph - N/A   Clear
11:54 AM -7.6 °F -18.8 °F -14.8 °F 71% 30.16 in 10.0 mi South 4.6 mph - N/A   Clear
12:14 PM -5.8 °F -14.5 °F -14.8 °F 65% 30.15 in 10.0 mi South 3.5 mph - N/A   Clear
12:34 PM -5.8 °F - -13.0 °F 71% 30.14 in 7.0 mi Calm Calm - N/A   Clear
12:54 PM -5.8 °F - -13.0 °F 71% 30.13 in 4.0 mi Calm Calm - N/A   Haze
1:14 PM -4.0 °F - -11.2 °F 71% 30.12 in 4.0 mi Calm Calm - N/A Snow Light Snow
1:34 PM -4.0 °F - -11.2 °F 71% 30.10 in 3.0 mi Calm Calm - N/A Snow Light Snow
1:53 PM -2.2 °F - -9.4 °F 71% 30.09 in 3.0 mi Calm Calm - N/A Snow Light Snow
2:14 PM -2.2 °F - -7.6 °F 78% 30.08 in 2.0 mi Calm Calm - N/A Snow Light Snow
2:34 PM -2.2 °F - -7.6 °F 78% 30.07 in 2.0 mi Calm Calm - N/A Snow Light Snow
2:54 PM -2.2 °F - -7.6 °F 78% 30.07 in 2.0 mi Calm Calm - N/A Snow Light Snow
3:13 PM -2.2 °F - -7.6 °F 78% 30.07 in 2.5 mi Calm Calm - N/A Snow Light Snow
3:34 PM -2.2 °F - -7.6 °F 78% 30.06 in 2.0 mi Calm Calm - N/A Snow Light Snow
3:54 PM -2.2 °F - -7.6 °F 78% 30.05 in 2.0 mi Calm Calm - N/A Snow Light Snow
4:13 PM -2.2 °F - -7.6 °F 78% 30.05 in 2.5 mi Calm Calm - N/A Snow Light Snow
4:34 PM -2.2 °F - -7.6 °F 78% 30.05 in 2.5 mi Calm Calm - N/A Snow Light Snow
4:54 PM -2.2 °F - -5.8 °F 85% 30.05 in 3.0 mi Calm Calm - N/A Snow Light Snow
5:14 PM -0.4 °F - -5.8 °F 78% 30.04 in 4.0 mi Calm Calm - N/A Snow Light Snow
5:34 PM -0.4 °F - -5.8 °F 78% 30.03 in 3.0 mi Calm Calm - N/A Snow Light Snow
5:54 PM -0.4 °F - -5.8 °F 78% 30.03 in 4.0 mi Calm Calm - N/A Snow Light Snow
6:14 PM -0.4 °F - -5.8 °F 78% 30.03 in 4.0 mi Calm Calm - N/A Snow Light Snow
6:34 PM -0.4 °F - -5.8 °F 78% 30.02 in 4.0 mi Calm Calm - N/A Snow Light Snow
6:54 PM -0.4 °F -8.3 °F -5.8 °F 78% 30.01 in 3.0 mi SE 3.5 mph - N/A Snow Light Snow
7:14 PM -0.4 °F -12.0 °F -5.8 °F 78% 30.00 in 4.0 mi SSE 5.8 mph - N/A Snow Light Snow
7:34 PM -0.4 °F -12.0 °F -5.8 °F 78% 30.00 in 5.0 mi SSE 5.8 mph - N/A Snow Light Snow
7:54 PM -0.4 °F -12.0 °F -5.8 °F 78% 29.99 in 3.0 mi South 5.8 mph - N/A Snow Light Snow
8:14 PM -0.4 °F -10.4 °F -5.8 °F 78% 29.99 in 7.0 mi South 4.6 mph - N/A   Scattered Clouds
8:34 PM -0.4 °F -10.4 °F -5.8 °F 78% 29.98 in 4.0 mi South 4.6 mph - N/A Snow Light Snow
8:54 PM -0.4 °F -10.4 °F -5.8 °F 78% 29.98 in 3.0 mi South 4.6 mph - N/A Snow Light Snow
9:14 PM -0.4 °F -8.3 °F -5.8 °F 78% 29.97 in 4.0 mi South 3.5 mph - 0.01 in Snow Light Snow
9:34 PM -0.4 °F -8.3 °F -5.8 °F 78% 29.96 in 2.5 mi South 3.5 mph - 0.01 in Snow Light Snow
9:54 PM -0.4 °F - -4.0 °F 85% 29.95 in 3.0 mi Calm Calm - 0.01 in Snow Light Snow
10:14 PM -0.4 °F -10.4 °F -4.0 °F 85% 29.94 in 4.0 mi SW 4.6 mph - N/A Snow Light Snow
10:34 PM 1.4 °F -9.9 °F -4.0 °F 78% 29.93 in 2.5 mi SW 5.8 mph - N/A Snow Light Snow
10:54 PM -0.4 °F -14.7 °F -5.8 °F 78% 29.93 in 4.0 mi WSW 8.1 mph - N/A Snow Light Snow
11:14 PM -0.4 °F -14.7 °F -5.8 °F 78% 29.93 in 10.0 mi WSW 8.1 mph - N/A   Mostly Cloudy
11:34 PM -0.4 °F -13.4 °F -7.6 °F 72% 29.92 in 5.0 mi WSW 6.9 mph - N/A Snow Light Snow
11:53 PM -0.4 °F -10.4 °F -7.6 °F 72% 29.92 in 10.0 mi WSW 4.6 mph - N/A   Mostly Cloudy